Regional Weather Roundup
Issued by NWS

Home | Current Version | Previous Version | Text Only | Print | Product List | Glossary On
Versions: 1 2 3 4 5 6 7 8 9 10 11 12 13 14 15 16 17 18 19 20 21 22 23 24 25 26 27 28
000
ASUS44 KJAN 251110
RWRMS

MISSISSIPPI HOURLY WEATHER ROUNDUP
NATIONAL WEATHER SERVICE JACKSON MS
600 AM CDT SAT MAR 25 2017

NOTE: "FAIR: INDICATES FEW OR NO CLOUDS BELOW 12,000 FEET WITH NO
SIGNIFICANT WEATHER AND/OR OBSTRUCTIONS TO VISIBILITY.

MSZ001>002-007>008-010>013-018>021-025>028-034>036-251200-
NORTHWEST MISSISSIPPI

CITY           SKY/WX    TMP DP  RH WIND       PRES   REMARKS
CLARKSDALE     CLOUDY    61  61 100 SE14      29.92F
GREENWOOD      LGT RAIN  60  59  96 S13       29.99F
GREENVILLE     CLOUDY    59  56  89 S18G25    29.91F
OXFORD         HVY RAIN  57  55  94 S8G20     30.02S
TUNICA         RAIN      59  55  88 SE16      29.90F
WINONA         CLOUDY    60  58  91 SW18G36   30.05R
$$

MSZ003>006-009-014>017-022>024-029>033-037>039-251200-
NORTHEAST MISSISSIPPI

CITY           SKY/WX    TMP DP  RH WIND       PRES   REMARKS
COLUMBUS AFB   MOCLDY    63  57  80 S16       30.05R
GOLDN TRIANGLE CLOUDY    63  54  72 S17G25    30.02F
STARKVILLE     FAIR      63  59  88 SE13G20   30.05F
TUPELO         CLOUDY    64  57  78 SE18G24   30.03R
$$

MSZ040-058-251200-
CENTRAL MISSISSIPPI

CITY           SKY/WX    TMP DP  RH WIND       PRES   REMARKS
JACKSON INTL   CLOUDY    69  62  78 S14       30.01R THUNDER
JACKSON HAWKNS LGT RAIN  62  57  83 W15G28    30.05R
MERIDIAN KEY   PTCLDY    65  61  87 S15       30.07F
MERIDIAN NAS   MOCLDY    62  56  80 SE13G21   30.08F
RAYMOND        RAIN      61  59  94 SW6       30.05R
$$

MSZ059>079-251200-
SOUTH MISSISSIPPI

CITY           SKY/WX    TMP DP  RH WIND       PRES   REMARKS
BROOKHAVEN     CLOUDY    68  64  88 S8        30.06R
HATTIESBURG    PTCLDY    64  62  93 SE8       30.08F
MCCOMB         CLOUDY    68  63  84 SE16      30.03R
NATCHEZ        CLOUDY    59  55  88 SE9       30.01F THUNDER
PINE BELT      CLOUDY    64  59  82 SE9       30.09F
$$

MSZ080>082-251200-
COASTAL MISSISSIPPI

CITY           SKY/WX    TMP DP  RH WIND       PRES   REMARKS
BILOXI         MOCLDY    70  66  87 SE8       30.11R
PASCAGOULA     LGT RAIN  69  63  81 SE8       30.12S
GULFPORT       CLOUDY    71  67  87 S7        30.11R
$$

LAZ007>009-015>016-023>026-251200-
NORTHEAST LOUISIANA

CITY           SKY/WX    TMP DP  RH WIND       PRES   REMARKS
BASTROP        CLOUDY    59  59  99 CALM      29.92R
TALLULAH/VBURG HVY RAIN  59  58  96 S17       30.00F
$$




USA.gov is the U.S. government's official web portal to all federal, state and local government web resources and services.